Cristian Medina

Olheiro - America de Cali
22 Fev 2028
Terça-feira
Processo

Personalidade

Adaptabilidade (9) Ambição (17) Controvérsia (8) Lealdade (8) Pressão (13) Profissionalismo (10) Espírito Esportivo (12) Temperamento (1)

Perfil

Estilo de Treinamento Democrático
Licença Continental A
Determinação 7
Gestão de Pessoas 9
Motivação 6
Disciplina 12
Satisfação no Trabalho
100%
Fadiga
0%
Função Olheiro
Salário 63.2K p/s
Contrato 14.03.2029

Desempenho

Comportamento Bom
Eficácia do Treinamento
43%
Desenvolvimento do Jogador
50%
Prevenção de Lesões
50%
Implementação Tática
40%

Eventos Recentes

Participou de uma reunião de recrutamento agora
Participou de uma reunião de recrutamento 7d atrás
Participou de uma reunião de recrutamento 7d atrás
Participou de uma reunião de recrutamento 7d atrás
Avaliou um jogador 7d atrás
Avaliou um jogador 7d atrás
Avaliou um jogador 7d atrás
Participou de uma reunião de recrutamento 14d atrás

Monitorando agora

77
Jogador Clube Status Habilidade Confiança Observado Última observação Último voto
Matheus Pereira Toronto FC Ativo 119 / 114 40% 1 20.02.2028 -
Malibongwe Khoza Mamelodi Sundowns Ativo 146 / 117 40% 1 20.02.2028 -
Cole Bassett Portland Timbers Ativo 140 / 106 40% 1 19.02.2028 -
Adrià Altimira Deportivo La Coruña Ativo 158 / 136 40% 1 16.02.2028 -
Dani Sánchez Oviedo Ativo 124 / 116 40% 1 16.02.2028 -
Williams Manyama SuperSport United Ativo 119 / 102 40% 1 07.02.2028 -
Jesús Vázquez Valencia Ativo 156 / 160 40% 1 07.02.2028 -
Manuel Ospina Cortulua Ativo 123 / 122 48% 1 02.12.2027 -
Kevin Tamayo Leones Ativo 125 / 126 48% 1 05.07.2027 -
Oliver Skipp Leicester City Ativo 130 / 121 40% 1 28.06.2027 -
Darlin Yongwa Norwich City Ativo 113 / 139 40% 1 28.06.2027 -
Harry Wilson Leeds United Ativo 157 / 137 40% 1 31.05.2027 Mais informações
Ronald Swansea City Ativo 113 / 110 40% 1 31.05.2027 -
Santiago González Tigre Ativo 126 / 131 40% 1 14.12.2026 -
Santiago Núñez Estudiantes Ativo 114 / 120 40% 1 14.12.2026 -
Iván Villalba Independiente Rivadavia Ativo 128 / 130 40% 1 30.11.2026 -
Jaminton Campaz Rosario Central Ativo 122 / 122 40% 1 27.11.2026 -
Sayfallah Ltaief Cracovia Ativo 101 / 110 40% 1 26.11.2026 -
Orbelín Pineda Monterrey Ativo 159 / 152 40% 2 11.11.2026 Mais informações
Juan Pablo Domínguez Leon Ativo 142 / 115 40% 3 10.11.2026 -
Richard Ledezma Guadalajara Ativo 132 / 122 40% 2 10.11.2026 -
Luis Romo Guadalajara Ativo 133 / 130 40% 1 08.11.2026 -
Eric Meza Estudiantes Ativo 122 / 114 40% 1 07.11.2026 -
Luís Esteves Atlas Ativo 116 / 141 40% 3 05.11.2026 Observar
Jhohan Romaña Leon Ativo 133 / 134 40% 1 02.11.2026 -
Emanuel Coronel Rosario Central Ativo 116 / 127 40% 1 02.11.2026 -
Fernando Beltrán Leon Ativo 128 / 108 40% 3 01.11.2026 -
Cristian Calderón Pumas UNAM Ativo 119 / 118 40% 1 01.11.2026 -
Jesús Angulo Tigres Ativo 154 / 128 40% 3 29.10.2026 -
Juan Infante Atlético Tucumán Ativo 125 / 120 40% 1 29.10.2026 -
Salvador Reyes Leon Ativo 106 / 111 40% 2 28.10.2026 -
Marcelino Moreno Lanús Ativo 144 / 124 40% 2 28.10.2026 -
Jesús Ricardo Angulo Toluca Ativo 130 / 119 40% 3 26.10.2026 Observar
Hernán de la Fuente Instituto Ativo 115 / 112 40% 1 26.10.2026 -
Santiago Montiel Independiente Ativo 136 / 120 40% 1 25.10.2026 -
Leandro Lozano Boca Juniors Ativo 122 / 136 40% 2 17.10.2026 -
Tiago Palacios Estudiantes Ativo 141 / 125 40% 1 17.10.2026 -
Lucas Abascia Queretaro Ativo 105 / 110 40% 1 15.10.2026 -
Damián Fernández Defensa y Justicia Ativo 137 / 120 40% 1 15.10.2026 -
Nicolás Castro Toluca Ativo 108 / 127 40% 1 12.10.2026 -
Iker Benito Queretaro Ativo 140 / 110 40% 1 11.10.2026 -
Ramiro Ruiz Rodríguez Atlético Tucumán Ativo 128 / 106 40% 2 10.10.2026 -
Joaquín Gho Argentinos Juniors Ativo 128 / 122 40% 1 10.10.2026 -
Nicolás Tripichio San Lorenzo Ativo 136 / 118 40% 1 08.10.2026 -
Franco Zapiola Platense Ativo 111 / 110 40% 1 04.10.2026 -
Carlos Rotondi Cruz Azul Ativo 129 / 126 40% 1 04.10.2026 -
Bryan González Guadalajara Ativo 148 / 126 40% 1 29.09.2026 -
Brian Rodríguez Club America Ativo 119 / 119 40% 2 27.09.2026 -
Jordi Cortizo Leon Ativo 140 / 120 40% 2 27.09.2026 -
Carlos Rodríguez Cruz Azul Ativo 116 / 133 40% 2 25.09.2026 Mais informações
Efraín Álvarez Guadalajara Ativo 111 / 127 40% 1 22.09.2026 -
Diego Rossi Monterrey Ativo 147 / 153 40% 1 20.09.2026 -
Ozziel Herrera Tigres Ativo 114 / 120 40% 1 20.09.2026 -
Adonis Preciado Tijuana Ativo 118 / 137 40% 2 17.09.2026 -
Brian Gutiérrez Guadalajara Ativo 108 / 120 40% 1 15.09.2026 -
Rômulo Tigres Ativo 112 / 132 40% 1 13.09.2026 -
Alejandro Zendejas Club America Ativo 152 / 134 40% 2 11.09.2026 -
Álvaro Angulo Pumas UNAM Ativo 113 / 135 40% 1 11.09.2026 -
Richard Martinez Veracruz Ativo 141 / 143 40% 2 08.09.2026 -
Oussama Idrissi Pachuca Ativo 126 / 152 40% 2 07.09.2026 -
Adalberto Carrasquilla Pumas UNAM Ativo 144 / 131 40% 1 06.09.2026 -
Aliou Dieng Valencia Ativo 104 / 111 40% 1 03.09.2026 -
Ramiro Sordo Santos Laguna Ativo 104 / 139 40% 2 02.09.2026 -
Lucas Souto Defensa y Justicia Ativo 135 / 129 40% 1 01.09.2026 -
Fidel Ambríz Monterrey Ativo 111 / 110 40% 1 28.08.2026 -
Agustín Palavecino Cruz Azul Ativo 151 / 128 40% 1 28.08.2026 -
Rubén Duarte Legia Ativo 121 / 108 40% 1 26.08.2026 -
Pedro Vite Pumas UNAM Ativo 137 / 117 40% 1 25.08.2026 -
Valentín Vada AEK Ativo 114 / 131 40% 1 24.08.2026 -
Bruno Méndez Toluca Ativo 141 / 118 40% 1 24.08.2026 -
Jorge Sánchez Atlas Ativo 110 / 149 40% 1 20.08.2026 -
Martín Ojeda Orlando City Ativo 111 / 114 40% 1 09.08.2026 -
Alfredo Morelos Atletico Nacional Ativo 133 / 121 40% 1 08.08.2026 -
Hugo Cuypers Monterrey Ativo 113 / 139 40% 1 08.08.2026 -
Josh Sargent Toronto FC Ativo 147 / 132 40% 1 06.08.2026 -
Dejan Joveljić Seattle Sounders Ativo 112 / 142 40% 1 05.08.2026 -
James Pantemis Portland Timbers Ativo 101 / 96 40% 1 03.08.2026 -